Powrót do katalogu

IRIDIUM 128

AktywnyŁącznośćPO
NORAD 42811·PAYLOAD·🇺🇸 United States

Wystrzelony Jun 25, 2017 z Vandenberg Space Force Base

Loading…

Następne Przeloty (najbliższe 24 godziny)

TLE

ŚwieżeSource: CelesTrak SupGP

Epoka: Sep 14, 2026, 21:19 UTC

1 42811C 17039J   26257.88854167 -.00002480  00000+0 -88657-3 0  2574
2 42811  86.4026 347.6665 0002176  95.1563  43.4931 14.34220336    19

Śledź IRIDIUM 128 w czasie rzeczywistym z AllMySat

Download on the App Store